Simultaneous Nadir Overpasses (SNOs) Predictions

Prediction of SNOs between GOES-16 and AQUA Satellite Orbit:

Table of predicted SNOs for the next 14.0 days since TLE Epoch: 2/8/2019
Index Date Time (GOES-16) GOES-16 Lat,Lon AQUA Lat,Lon Distance(km) Time Diff (sec)
1 02/09/2019 06:50:38 -0.00, -75.19 0.63, -78.30 353.35 80
2 02/11/2019 06:38:27 -0.01, -75.20 0.01, -75.34 16.04 80
3 02/13/2019 06:23:36 0.00, -75.21 -0.62, -72.38 321.86 80
4 02/13/2019 18:45:00 -0.00, -75.21 -0.53, -77.56 268.04 80
5 02/15/2019 18:35:29 -0.01, -75.23 0.10, -74.61 69.93 80
6 02/17/2019 18:23:18 -0.00, -75.24 0.74, -71.65 407.94 80
7 02/18/2019 06:44:34 0.00, -75.25 0.31, -76.82 177.74 80
8 02/20/2019 06:29:43 -0.00, -75.27 -0.33, -73.86 161.18 80
9 02/20/2019 18:51:07 0.00, -75.28 -0.81, -79.04 428.40 80
10 02/22/2019 18:38:56 0.00, -75.31 -0.16, -76.09 88.38 80




NCC Satellite Simultaneous Nadir Overpasses (SNOs) Prediction Service
